Hourly Data Report for November 15, 2020

OTTAWA INTL A
ONTARIO
Current Station Operator: NAVCAN

45°19'00.000" N
75°40'00.000" W
114.90 m
6106001
71628
YOW

Download Data

Hourly Data (November 2020)
Hourly Data Report for November 15, 2020
TIME Temp Definition
°C
Dew Point Definition
°C
Rel Hum Definition
%
Wind Dir Definition
10's deg

Wind Spd Definition
km/h
Visibility Definition
km
Stn Press Definition
kPa
Hmdx Definition


Wind Chill Definition


Weather Definition


00:00 -3.8 -6.7 80 12 4 24.1 100.87   -5 LegendNANA
01:00 -4.3 -7.7 77 12 8 24.1 100.89   -8 Clear
02:00 -4.5 -7.2 81 10 13 24.1 100.80   -10 LegendNANA
03:00 -4.1 -6.3 84 10 16 24.1 100.71   -10 LegendNANA
04:00 -4.0 -6.3 84 11 15 24.1 100.68   -9 Mostly Cloudy
05:00 -3.2 -5.8 82 9 16 24.1 100.52   -9 LegendNANA
06:00 -2.9 -5.1 85 8 17 24.1 100.45   -8 LegendNANA
07:00 -2.0 -4.9 81 10 19 24.1 100.33   -8 Mostly Cloudy
08:00 -1.0 -5.2 74 8 22 24.1 100.15   -7 LegendNANA
09:00 -1.1 -4.5 78 8 22 12.9 99.93   -7 Snow
10:00 -0.2 -3.5 79 9 26 24.1 99.68   -6 Snow
11:00 0.9 -3.1 75 8 31 24.1 99.53     LegendNANA
12:00 2.3 -2.1 73 9 28 24.1 99.27     LegendNANA
13:00 2.9 -1.7 72 9 28 24.1 98.97     Rain
14:00 3.2 -0.9 74 9 23 16.1 98.78     Rain
15:00 2.9 1.1 88 8 21 16.1 98.56     Rain
16:00 3.3 2.3 93 9 16 16.1 98.45     Rain
17:00 3.7 3.0 95 8 14 24.1 98.28     LegendNANA
18:00 8.2 6.5 88 17 37 24.1 98.20     Rain
19:00 7.6 6.2 91 18 24 24.1 98.21     Rain
20:00 7.5 5.9 89 18 24 24.1 98.17     Rain
21:00 7.8 2.6 70 22 45 24.1 98.20     LegendNANA
22:00 6.7 1.0 67 23 27 24.1 98.34     Mainly Clear
23:00 6.6 2.1 73 21 18 24.1 98.37     LegendNANA

Notes on Data Quality.

Legend

  • E = Estimated
  • M = Missing
  • NA = Not Available*
  • [empty] = Indicates an unobserved value
Date modified: